Regional Weather Roundup
Issued by NWS Newport/Morehead, NC

Current Version | Previous Version | Graphics & Text | Print | Product List | Glossary Off
Versions: 1 2 3 4 5 6 7 8 9 10 11 12 13 14 15 16 17 18 19 20 21 22 23 24 25 26 27 28 29 30 31 32 33 34 35 36 37 38 39 40 41 42 43 44 45 46 47 48 49 50

000
ASUS42 KMHX 101310
RWRMHX
WEATHER ROUNDUP FOR EASTERN NORTH CAROLINA
NATIONAL WEATHER SERVICE NEWPORT/MOREHEAD CITY NC
900 AM EDT THU JUL 10 2014

NOTE: "FAIR" INDICATES FEW OR NO CLOUDS BELOW 12,000 FEET
WITH NO SIGNIFICANT WEATHER AND/OR OBSTRUCTIONS TO VISIBILITY

NCZ015>017-031-032-045>047-102-103-101400-
NORTH COAST

CITY           SKY/WX    TMP DP  RH WIND       PRES   REMARKS
EDENTON        LGT RAIN  78  75  92 SW9       30.09R
ELIZABETH CITY CLOUDY    78  75  90 S7        30.08R
KITTY HAWK     PTSUNNY   82  75  80 SW10      30.08S
MANTEO         CLOUDY    81  74  79 W12       30.10R

$$

NCZ045>047-081-094-103-104-101400-
CENTRAL COAST

CITY           SKY/WX    TMP DP  RH WIND       PRES   REMARKS
FRISCO         MOSUNNY   83  77  82 SW9       30.12R
SWANQUARTER      N/A     84 N/A N/A SW9G15    30.06S

$$

NCZ095-097-098-100-101-101400-
SOUTHERN COAST

CITY           SKY/WX    TMP DP  RH WIND       PRES   REMARKS
BEAUFORT       MOSUNNY   83  77  82 SW16      30.11R
CEDAR ISLAND     N/A     84 N/A N/A SW5G15    30.15R
JACKSONVILLE   MOSUNNY   83  76  79 S8G16     30.08R
NEWPORT        NOT AVBL
PINEY ISLAND   MOSUNNY   85  77  77 SW10      30.10R
WILMINGTON     LGT RAIN  75  68  78 S8        30.09R


$$

NCZ011>013-027>030-043-044-078>080-089-090>093-098-101400-
COASTAL PLAIN

CITY           SKY/WX    TMP DP  RH WIND       PRES   REMARKS
AHOSKIE        CLOUDY    75  73  93 CALM      30.08R
CLINTON        PTSUNNY   78  77  96 CALM      30.08R FOG
ELIZABETHTOWN  SUNNY     80  77  89 S6        30.07S
GOLDSBORO      PTSUNNY   77  77  98 VRB3      30.06S
GREENVILLE     CLOUDY    73  72  94 S5        30.10R
HAVELOCK       CLOUDY    82  75  79 SW10      30.11R
KENANSVILLE    PTSUNNY   80  76  87 CALM      30.08S
KINSTON        PTSUNNY   77  73  88 S5        30.09R FOG
NEW BERN       PTSUNNY   84  75  74 W3        30.11R
RICHLANDS      PTSUNNY   82  73  74 S9        30.09R
ROANOKE RAPIDS NOT AVBL
ROCKY MOUNT    LGT RAIN  76  72  87 CALM      30.08R
WASHINGTON     CLOUDY    78  73  83 S6        30.09S
WHITEVILLE     MOSUNNY   82  76  82 S3        30.08R

$$

AMZ130-135-150-152-154-156-158-170-250-252-270-ANZ085-086-088-633-658-670-101400-
MARINE OBSERVATIONS

STATION/POSITION TIME  TEMP    WIND        PRES    WAVE   SWELL
                       AIR SEA DIR/SP/G            HT/PER HT/PER
                 (UTC) (F)     (DEG/KT/KT) (MB)    (FT/S) (FT/S)
CHESAPEAKE LIGHT NOT AVBL
BUOY 44014       1300   77 75  210/ 12/ 14 1018.4    4/ 6   3/ 6
DUCK             1300   80 63  220/ 12/ 16 1018.1
2E DUCK          1300                        N/A     2/ 6
OREGON INLET     1300   81 83  220/ 14/ 16 1019.1
BUOY 44095       1300      80                N/A     4/ 6
HATTERAS CG      1300   82 81  220/  9/ 13 1020.2
DIAMOND BUOY     1300          VRB 14/ 16  1019.6    5/ 6   2/ 8
17S OCRACOKE INL NOT AVBL
CAPE LOOKOUT     1200   81     210/ 11/ 13 1019.0
BEAUFORT LAB     1300   82 82  220/  6/ 11 1019.1
30 SE NEW RIVER  1300   81 81  210/ 14/ 16 1019.6    4/ 5   2/ 8
5 SE WRIGHTSVILL 1200   78 81  220/ 14/ 16 1019.1
FRYING PAN BUOY  NOT AVBL
BUOY 41001       NOT AVBL
BUOY 41002       1243   80 81  190/ 14/ 16 1022.4    3/ 9   2/ 9
BUOY 41004       1300   82 81  210/ 14/ 16 1018.2    4/ 6   2/ 8

$$


USA.gov is the U.S. government's official web portal to all federal, state and local government web resources and services.